Find Starlink 32149

NORAD ID: 60292 Int'l Des: 2024-132 Owner: SPXS Country: US Constellation: starlink operational
LEOCIRCULAR

实时位置

正在加载3D地球...

关于 Starlink 32149

正在加载描述...

即将过境

Passes for default location (London). Set your location on the main map for personalized predictions.

高度历史

Loading altitude history...

两行轨道根数

1 60292U 24132Q 26123.39448762 -.00005045 00000-0 -15832-3 0 9996
2 60292 53.1597 158.4944 0000823 73.2909 286.8182 15.30204240 99935
Epoch: May 3, 2026 • Age: 18 hours

当前状态

高度 487.0 km
速度 7.62 km/s
星下点 -35.51°S, 89.61°E
发射日期 Jul 28, 2024
运行时间 1.7 years
类型 internet

技术详情

分类 Payload
质量 730.00 kg
干质量 700.00 kg
总质量 730.00 kg
长度 0.30 m
直径 4.10 m
跨度 29.00 m
形状 Box + pan
制造商 SPXS
平台类型 Starlink V2M
阶段状态 In Orbit
所有者/国家 SPXS/US

Most Searched